SCP
0 0 0 0 0 0 0 0 0 0 1 1 1 1 1 1 1 1 1 1 1 2 2 2 3 3 2 2 2 2 2 2 2 2 2 2 1 1 1 1 1 1 1 1
0 0 0 0 0 0 0 0 0 0 1 1 1 1 1 1 1 1 1 1 1 2 2 2 3 3 3 3 2 2 2 2 2 2 2 2 1 1 1 1 1 1 1 1
0 0 0 0 0 0 0 0 0 0 1 1 1 1 1 1 1 1 1 1 2 2 2 3 3 3 3 3 3 3 2 2 2 2 2 2 1 1 1 1 1 1 1 1
0 0 0 0 0 0 0 0 1 1 1 1 1 1 1 1 1 1 1 2 2 2 2 2 3 3 3 3 3 3 2 2 2 2 2 2 1 1 1 1 1 1 1 1
0 0 0 0 0 0 0 1 1 1 1 1 1 1 1 1 1 1 2 2 2 2 2 2 3 3 3 3 3 2 2 2 2 2 2 2 1 1 1 1 1 1 1 1
0 0 0 0 0 0 0 0 1 1 1 1 1 1 1 1 1 1 2 2 2 2 2 3 3 3 3 3 3 2 2 2 2 2 2 2 2 2 2 1 1 1 1 1
0 0 0 0 0 0 0 1 1 1 1 1 1 1 1 1 1 2 2 2 2 2 3 3 3 3 3 3 3 2 2 2 2 2 2 2 2 2 2 1 1 1 1 1
0 0 0 0 0 1 1 1 1 1 1 1 1 1 1 2 2 2 2 2 2 2 3 3 3 3 3 3 3 2 2 2 2 2 1 1 1 2 1 1 1 1 1 1
0 1 1 1 1 1 1 1 1 1 1 1 1 1 2 2 2 2 2 2 2 2 3 3 3 3 3 3 3 2 2 2 2 1 1 1 1 1 1 1 1 1 1 1
1 1 1 1 1 1 1 1 1 1 1 1 1 1 1 2 2 2 2 2 2 2 2 2 2 2 3 3 3 2 2 2 2 1 1 1 1 1 1 1 1 1 1 1
1 1 1 1 1 1 1 1 1 1 1 1 1 1 1 1 2 2 2 2 2 2 2 2 2 2 2 2 2 2 2 2 1 1 1 1 1 1 1 1 1 1 1 1
1 1 1 1 1 1 1 1 1 1 1 1 1 1 1 1 1 1 2 2 2 2 2 2 2 2 -4 -8 -4 2 2 1 1 1 1 1 1 1 0 0 0 0 0 0
1 1 1 1 1 1 1 1 1 1 1 1 1 1 1 1 1 1 2 2 2 2 2 2 2 2 -8 -18 -8 2 1 1 1 1 1 1 1 1 0 0 0 0 0 0
1 1 1 1 1 1 1 1 1 1 1 1 1 1 1 1 1 1 1 2 2 2 2 2 1 1 -5 -8 -4 1 1 1 1 1 1 1 1 1 1 0 0 0 0 0
1 1 1 1 1 0 0 0 0 1 1 1 1 1 1 1 1 1 1 1 1 2 2 1 1 1 1 1 1 1 1 1 1 1 1 1 1 1 1 1 1 1 0 0
1 1 1 0 0 0 0 0 0 0 1 1 1 1 1 1 1 1 1 1 1 1 2 1 1 1 1 1 1 1 1 1 1 0 0 0 0 0 0 1 1 1 1 0
0 0 0 0 0 0 0 0 0 1 1 1 1 1 1 1 1 1 1 1 1 1 1 1 1 1 1 1 1 1 1 0 0 0 0 0 0 0 0 1 1 1 1 0
0 0 0 0 0 0 1 1 1 1 1 1 1 1 1 1 1 1 1 1 1 1 1 1 1 1 1 1 1 1 1 0 0 0 0 1 0 1 1 1 1 1 1 0
0 0 0 0 0 1 1 1 1 1 1 1 1 1 1 1 1 1 1 1 1 1 1 1 1 1 1 0 0 0 0 0 0 0 1 1 1 1 1 1 1 1 0 0
0 0 0 0 0 1 1 1 1 1 1 1 1 1 1 1 1 1 1 1 1 1 1 1 1 1 1 0 0 0 0 0 0 0 0 1 1 1 1 1 1 0 0 0
0 0 0 0 0 0 1 1 1 1 1 1 1 1 1 1 1 1 1 1 1 1 0 0 0 0 0 0 0 0 0 0 0 0 1 1 1 1 1 0 0 0 0 0
0 0 0 0 0 1 1 1 1 1 1 1 1 1 1 1 1 1 1 1 0 0 0 0 0 0 0 0 0 0 0 0 0 0 0 0 0 0 0 0 0 0 0 0
0 0 0 1 1 1 1 1 1 1 1 1 1 1 1 1 1 0 0 0 0 0 0 0 0 0 0 0 0 0 0 0 0 0 0 0 0 0 0 0 0 0 0 0
0 1 1 1 1 1 1 1 1 1 1 1 1 1 0 0 0 0 0 0 0 0 0 0 0 0 0 0 0 0 0 0 0 0 0 0 0 0 0 0 0 0 0 0
1 1 1 1 1 1 1 1 1 1 1 0 0 0 0 0 0 0 0 0 0 0 0 0 0 0 0 0 0 0 0 0 0 0 0 0 0 0 0 0 0 0 0 0
0 0 1 1 1 0 0 0 0 0 0 0 0 0 0 0 0 0 0 0 0 0 0 0 0 0 0 0 0 0 0 0 0 0 0 0 0 0 0 0 0 0 0 0
0 0 0 0 0 0 0 0 0 0 0 0 0 0 0 0 0 0 0 0 0 0 0 0 0 0 0 0 0 0 0 0 0 0 0 0 0 0 0 0 0 0 0 0
Wind_Speed
14 15 13 13 14 14 12 11 10 8 6 6 5 5 5 6 7 7 6 4 6 6 6 6 6 6 6 6 6 6 7 7 6 5 4 4 4 3 3 3 3 2 2 2
14 16 16 15 14 14 13 11 10 8 6 3 3 4 5 6 6 6 6 4 4 6 7 6 6 6 6 6 6 5 6 6 6 5 5 4 4 4 3 2 2 2 2 2
12 14 15 15 12 10 10 8 7 8 4 3 4 5 4 5 6 5 5 5 4 5 6 5 5 6 6 5 6 5 5 5 6 5 5 4 4 4 4 3 3 3 3 2
11 12 16 8 7 7 7 6 4 3 4 4 4 5 5 4 4 5 4 4 4 5 6 6 6 5 5 6 6 6 5 5 5 4 4 4 3 3 3 3 3 2 3 3
10 12 13 8 5 5 6 5 2 1 2 4 5 5 6 4 4 4 4 4 4 5 6 5 5 5 5 6 6 5 5 4 5 4 4 4 3 3 3 3 3 3 3 3
10 11 10 6 4 4 4 4 1 2 2 3 5 2 3 4 4 4 4 3 4 4 5 6 5 5 5 6 6 5 4 4 4 4 3 3 3 3 2 2 3 3 3 3
12 11 7 5 4 4 5 1 3 1 1 2 3 3 4 5 4 3 4 4 4 5 5 5 5 4 4 4 5 4 4 4 3 3 3 3 3 2 2 2 3 3 3 3
10 10 6 5 3 3 3 4 3 3 3 4 6 6 6 5 4 4 3 3 4 4 4 4 4 4 4 3 4 4 4 4 3 3 3 3 2 2 3 3 4 4 4 4
4 2 3 5 5 4 4 4 4 3 4 5 5 5 5 5 4 3 2 2 3 4 4 4 3 3 4 3 3 4 4 4 3 3 2 2 3 4 4 4 4 4 4 4
2 1 2 4 5 5 4 4 4 3 3 4 4 5 5 4 4 2 1 2 3 3 3 3 3 3 3 3 3 3 3 3 3 3 3 3 3 4 4 3 4 3 3 3
3 1 1 4 4 4 4 3 3 3 2 3 3 4 4 4 3 2 1 1 1 2 3 3 3 3 3 3 3 3 3 3 3 4 3 2 3 3 3 2 3 3 3 2
3 2 0 1 3 3 3 3 2 2 3 3 3 4 4 4 2 2 2 3 3 3 3 3 3 3 3 3 3 3 3 3 3 3 3 3 3 2 3 3 4 4 3 3
2 0 1 1 2 2 2 2 2 2 3 3 3 4 4 4 3 2 3 3 3 3 2 2 3 2 2 2 2 2 2 3 3 2 3 3 3 3 3 3 4 5 5 5
0 1 1 1 0 1 2 2 0 2 2 2 3 4 4 3 3 3 3 2 3 3 2 3 3 2 1 0 1 2 3 3 3 3 4 4 3 3 4 4 3 3 4 7
1 1 1 1 0 0 2 1 1 3 3 3 3 3 4 3 3 3 3 3 3 3 2 3 2 2 1 1 2 3 3 2 2 3 4 3 3 4 4 5 3 3 2 3
3 2 2 2 2 2 2 2 1 3 3 3 4 3 4 3 4 4 3 3 3 2 2 2 2 1 0 2 2 2 1 2 3 3 4 4 4 4 4 4 3 2 2 1
4 4 4 4 3 2 2 1 1 2 3 4 4 4 4 4 4 4 3 3 3 3 3 2 1 1 1 2 2 2 2 2 4 4 4 4 4 4 4 3 3 3 3 2
5 5 4 3 3 2 2 2 3 4 3 3 4 4 3 3 3 3 3 3 4 4 4 3 3 3 2 2 3 3 3 2 2 3 3 3 3 4 4 3 3 3 3 2
4 3 2 2 1 2 2 2 3 4 4 4 4 3 4 4 4 4 3 3 3 3 3 4 4 3 2 2 4 4 4 3 2 3 3 3 4 3 2 2 3 3 3 2
4 4 3 2 2 2 2 2 3 4 4 4 4 4 4 3 3 3 3 2 1 2 1 2 2 3 3 2 5 4 4 3 3 3 2 3 3 3 2 3 3 3 2 2
4 4 4 3 3 2 2 3 4 5 4 4 5 4 3 3 2 2 1 1 2 3 2 1 1 3 3 4 5 5 3 3 3 3 3 3 2 3 3 3 3 3 2 2
4 4 5 5 4 3 3 4 5 6 5 4 4 4 3 2 2 2 2 2 2 3 2 1 2 4 5 5 4 4 4 4 3 3 3 3 3 3 3 3 3 3 3 3
3 3 4 4 4 4 4 5 6 5 5 4 4 3 2 1 1 2 2 2 2 2 2 3 4 4 5 4 4 4 4 4 4 4 3 3 3 3 3 4 4 4 3 3
2 2 3 4 4 5 5 5 6 5 5 4 3 2 2 2 2 3 3 3 3 2 2 2 2 2 3 2 3 3 4 4 4 4 4 3 3 3 3 3 4 4 4 4
3 3 4 4 4 4 5 6 6 6 5 4 4 3 2 2 2 3 3 4 3 1 1 2 1 1 2 3 3 3 3 4 4 4 4 4 3 3 3 4 4 4 4 4
3 3 3 3 3 3 4 5 5 4 4 4 3 3 3 3 2 2 2 2 3 2 1 1 1 0 1 2 3 3 3 3 3 3 4 4 5 5 4 5 6 5 5 4
3 3 3 3 3 3 3 4 4 4 4 4 4 3 3 3 2 2 2 2 2 2 1 2 2 2 2 3 3 4 4 4 4 4 5 4 4 4 5 5 5 5 5 5
Wind_Direction
262 267 264 245 243 242 240 249 261 262 241 193 167 160 145 134 134 132 127 131 133 132 128 132 131 136 143 148 150 156 157 161 162 166 161 157 157 160 165 176 180 176 183 180
260 263 261 256 246 247 245 240 240 243 258 190 147 134 134 137 134 129 134 142 140 134 135 138 138 142 147 151 150 152 157 160 159 163 162 162 165 163 163 167 172 180 186 189
256 258 266 254 247 242 248 248 240 242 226 181 158 141 141 141 134 133 139 140 137 138 140 140 142 141 146 149 149 150 156 157 157 162 163 166 176 168 176 178 183 196 196 182
256 256 253 258 268 253 248 263 253 211 162 155 134 112 105 105 113 116 120 124 134 144 140 142 144 146 147 152 150 154 160 162 159 165 168 166 174 176 186 188 190 204 206 185
251 250 253 254 267 278 260 247 250 186 144 110 110 108 105 96 93 95 98 105 121 132 140 136 138 140 147 150 148 158 159 159 159 162 164 166 171 182 188 193 197 210 205 196
245 253 255 260 278 290 278 251 65 101 130 153 144 166 137 100 84 85 90 99 111 116 122 124 127 136 143 150 152 157 153 150 150 154 164 174 177 182 191 198 210 218 210 203
243 252 260 306 330 301 252 324 34 73 96 71 87 62 97 98 79 76 84 96 102 112 118 119 123 133 140 146 150 145 141 139 145 146 163 178 166 170 189 211 220 226 224 219
241 248 248 346 334 337 20 50 47 53 59 75 86 97 105 103 98 94 88 96 113 105 108 114 122 132 136 140 135 135 142 147 156 163 188 178 167 191 204 215 221 223 226 234
261 246 50 26 36 37 39 48 54 70 72 96 106 108 108 111 105 95 97 108 115 113 111 116 127 136 140 138 143 148 150 158 169 179 191 182 193 211 220 221 226 232 225 227
275 118 66 39 32 35 41 45 43 63 83 104 109 113 114 109 104 100 93 122 128 127 126 127 136 142 138 139 145 151 157 169 180 191 204 198 211 221 222 226 230 234 234 239
262 258 56 46 26 25 25 29 41 41 68 99 109 118 126 120 117 113 100 100 116 127 132 138 138 135 139 139 141 156 169 180 199 215 209 205 221 233 237 231 230 234 251 260
253 245 226 60 29 41 31 17 8 42 78 92 109 109 111 106 105 116 126 117 119 121 127 132 139 138 137 147 161 176 196 205 219 225 209 211 220 220 224 228 221 215 222 238
263 137 98 74 16 28 35 20 4 59 81 79 87 99 102 102 101 106 109 111 110 113 113 116 115 119 135 157 176 198 226 227 236 239 232 230 225 225 239 241 238 242 238 238
53 128 171 176 277 17 3 358 18 99 97 93 95 97 99 97 99 104 107 109 106 102 106 110 104 96 66 90 223 234 246 239 240 246 247 245 240 241 246 250 243 235 231 231
257 214 206 218 166 276 262 247 181 122 111 101 98 101 105 100 96 98 98 100 98 103 101 108 110 105 78 257 243 246 254 263 265 267 264 257 255 256 257 255 248 243 233 220
223 231 227 233 228 215 212 205 160 111 108 113 112 110 108 102 97 90 95 99 95 85 87 86 82 69 39 295 286 266 262 265 264 273 272 267 261 262 264 266 262 259 259 258
216 210 211 223 228 191 196 205 137 113 101 107 116 109 101 101 95 84 84 80 73 70 66 62 36 9 343 306 296 285 270 248 237 254 266 276 280 281 280 278 277 273 269 246
209 210 210 216 216 183 153 144 136 124 110 110 118 112 101 98 100 91 76 69 68 58 44 34 15 352 351 346 310 292 287 281 264 266 270 275 278 277 278 282 288 287 283 252
189 191 202 201 175 133 128 132 131 117 109 107 101 92 85 81 82 80 75 69 61 55 33 29 358 331 339 355 318 288 290 293 295 294 286 283 274 277 283 295 298 297 295 297
185 191 183 171 162 159 162 143 131 121 113 110 105 102 93 85 85 86 85 74 37 32 36 23 337 331 332 345 315 291 288 290 290 289 280 280 297 307 305 306 305 305 315 321
172 169 165 167 170 179 159 148 138 132 127 126 122 116 112 105 97 90 88 85 48 24 10 49 353 342 343 330 296 291 304 309 309 310 310 313 324 332 334 323 315 314 317 320
172 173 168 163 165 171 156 142 137 133 125 123 125 129 131 132 127 107 72 52 60 12 338 23 20 8 346 323 310 321 330 335 344 349 346 349 351 347 346 342 329 329 339 343
160 164 161 163 165 156 141 136 133 131 131 132 133 138 143 143 138 125 103 86 74 17 359 32 36 19 348 334 341 347 352 359 7 7 3 1 355 355 356 354 349 347 350 354
148 160 167 159 159 155 144 135 131 131 134 137 139 146 156 142 115 99 94 87 67 60 45 66 68 13 346 356 355 359 3 8 11 6 3 5 5 6 2 357 355 356 351 347
140 145 146 155 162 148 139 138 137 145 150 141 134 131 113 84 81 85 97 105 111 108 60 103 158 315 341 360 3 9 12 16 12 5 360 2 3 3 359 357 356 348 346 346
145 153 149 152 140 142 148 150 151 151 145 133 126 119 114 110 109 111 108 108 107 112 49 53 97 210 355 357 5 12 12 12 10 9 14 11 12 12 12 12 4 0 351 350
156 151 144 145 146 156 155 147 138 133 128 130 132 130 122 114 107 107 103 87 85 84 38 16 22 29 26 20 21 19 16 16 18 18 16 18 20 17 14 13 13 8 358 359